カタログに戻る

STARLINK-2613

運用中通信VLEO
NORAD 48353·PAYLOAD·🇺🇸 United States

打ち上げ May 4, 2021 から Cape Canaveral Space Force Station

Loading…

次のパス (今後24時間)

TLE

最新Source: CelesTrak SupGP

元期: Sep 14, 2026, 13:40 UTC

1 48353C 21038A   26257.56993056 -.00013360  00000+0 -42984-3 0  2573
2 48353  53.1589 199.1275 0001323  94.8253 215.1034 15.31692986    17

AllMySatでSTARLINK-2613をリアルタイム追跡

Download on the App Store